SM7CKM-1 Weather Reports


time (UTC)temp
F
wind
direction
speed
knots
gust
knots
rain 1hr
in
rain 24hr
in
rain mn
in
humidity
%
barometer
mb
20260505174224 54 305 7.0 10.4 0.00 0.00 0.00 22 1010.5
20260505172024 55 298 6.1 7.0 0.00 0.00 0.00 22 1010.7
20260505170926 56 266 7.8 9.6 0.00 0.00 0.00 22 1010.6
20260505164724 56 238 5.2 9.6 0.00 0.00 0.00 20 1010.5
20260505161424 57 262 7.8 14.8 0.00 0.00 0.00 20 1010.0
20260505160325 58 292 7.0 9.6 0.00 0.00 0.00 20 1010.1
20260505153024 58 295 5.2 8.7 0.00 0.00 0.00 20 1010.1
20260505151924 58 197 4.3 8.7 0.00 0.00 0.00 20 1010.0
20260505140225 58 341 8.7 13.9 0.00 0.00 0.00 20 1010.2
20260505124523 58 295 5.2 7.0 0.00 0.00 0.00 22 1010.2
20260505123423 57 266 8.7 13.0 0.00 0.00 0.00 22 1010.2
20260505122323 57 263 6.1 9.6 0.00 0.00 0.00 22 1010.2
20260505121224 57 211 6.1 8.7 0.00 0.00 0.00 22 1010.4
20260505120123 57 307 7.8 13.0 0.00 0.00 0.00 22 1010.5
20260505115024 57 210 6.1 9.6 0.00 0.00 0.00 24 1010.6
20260505113923 56 270 7.0 10.4 0.00 0.00 0.00 22 1010.4
20260505112823 56 260 7.0 9.6 0.00 0.00 0.00 28 1010.6
20260505110624 56 241 7.0 9.6 0.00 0.00 0.00 30 1010.7
20260505101124 55 240 7.8 12.2 0.00 0.00 0.00 32 1010.8
20260505100023 55 273 7.8 9.6 0.00 0.00 0.00 36 1010.9
20260505093822 54 242 8.7 13.0 0.00 0.00 0.00 40 1010.8
20260505092723 54 252 8.7 12.2 0.00 0.00 0.00 42 1010.8
20260505091622 54 298 8.7 12.2 0.00 0.00 0.00 43 1010.8
20260505090522 54 259 7.0 10.4 0.00 0.00 0.00 47 1010.8
20260505085423 54 225 6.1 9.6 0.00 0.00 0.00 50 1010.8
20260505084321 53 291 7.8 9.6 0.00 0.00 0.00 50 1010.7
20260505083222 53 254 7.0 9.6 0.00 0.00 0.00 51 1010.8
20260505082122 53 229 7.0 9.6 0.00 0.00 0.00 54 1010.7
20260505075921 52 268 7.0 9.6 0.00 0.00 0.00 54 1010.8
20260505074823 53 234 7.0 9.6 0.00 0.00 0.00 56 1010.8
20260505073721 53 215 7.8 9.6 0.00 0.00 0.00 57 1010.6
20260505072622 53 243 7.0 8.7 0.00 0.00 0.00 60 1010.7
20260505071521 53 239 7.0 9.6 0.00 0.00 0.00 61 1010.6
20260505070421 51 302 8.7 12.2 0.00 0.00 0.00 61 1010.7
20260505065321 52 202 6.1 9.6 0.00 0.00 0.00 63 1010.6
20260505064221 51 303 7.8 13.0 0.00 0.00 0.00 63 1010.7
20260505063121 51 241 6.1 9.6 0.00 0.00 0.00 69 1010.4
20260505062021 50 242 8.7 11.3 0.00 0.00 0.00 70 1010.5
20260505060922 49 256 7.0 9.6 0.00 0.00 0.00 71 1010.4
20260505055822 48 199 6.1 8.7 0.00 0.00 0.00 72 1010.1
20260505054722 48 219 7.8 11.3 0.00 0.00 0.00 73 1010.1
20260505053620 48 243 7.0 10.4 0.00 0.00 0.00 75 1010.0
20260505052522 47 226 7.8 11.3 0.00 0.00 0.00 78 1009.8
20260505050321 46 229 6.1 9.6 0.00 0.01 0.00 79 1009.6
20260505040821 44 251 4.3 7.0 0.00 0.01 0.00 85 1009.8
20260505035720 44 229 5.2 7.8 0.00 0.03 0.00 85 1009.8
20260505034620 44 242 5.2 7.0 0.00 0.03 0.00 86 1009.8
20260505033520 44 243 6.1 8.7 0.00 0.04 0.00 86 1009.8
20260505032420 44 270 5.2 8.7 0.00 0.05 0.00 86 1009.7
20260505030220 44 253 7.8 12.2 0.00 0.08 0.00 85 1009.8
20260505024020 44 234 10.4 14.8 0.00 0.10 0.00 86 1009.8
20260505022921 44 264 9.6 13.9 0.00 0.13 0.00 86 1009.8
20260505021820 44 232 8.7 14.8 0.00 0.15 0.00 85 1009.9
20260505015620 44 258 5.2 7.8 0.00 0.20 0.00 84 1009.9
20260505014519 44 240 7.8 10.4 0.00 0.22 0.00 84 1010.0
20260505013420 45 249 8.7 13.0 0.00 0.23 0.00 84 1009.9
20260505010120 45 255 8.7 13.0 0.00 0.31 0.00 84 1010.0
20260505005019 45 268 7.8 13.0 0.00 0.31 0.00 85 1010.0
20260505003919 45 248 7.8 13.0 0.00 0.32 0.00 85 1010.1
20260505002819 45 241 8.7 12.2 0.00 0.33 0.00 85 1010.1
20260504234419 46 230 7.0 13.0 0.00 0.34 0.00 80 1010.2
20260504233320 46 252 7.0 10.4 0.00 0.34 0.00 80 1010.3
20260504232218 46 246 6.1 13.0 0.00 0.36 0.00 80 1010.5
20260504231119 45 194 5.2 13.0 0.00 0.36 0.00 85 1010.3
20260504230018 45 225 6.1 7.8 0.00 0.36 0.00 84 1010.4
20260504224919 45 234 4.3 6.1 0.00 0.36 0.00 84 1010.6
20260504223818 45 191 3.5 7.0 0.00 0.36 0.00 83 1010.4
20260504222718 45 197 2.6 4.3 0.00 0.36 0.00 82 1010.5
20260504220518 46 231 4.3 6.1 0.00 0.36 0.00 74 1010.4
20260504215418 45 205 3.5 7.0 0.00 0.36 0.36 78 1010.4
20260504214318 45 173 2.6 4.3 0.00 0.36 0.36 74 1010.4
20260504212118 46 185 1.7 3.5 0.00 0.36 0.36 66 1010.4
20260504211018 46 165 2.6 2.6 0.00 0.36 0.36 65 1010.5
20260504205918 46 164 1.7 3.5 0.00 0.36 0.36 64 1010.5
20260504204819 47 165 1.7 2.6 0.00 0.36 0.36 63 1010.3
20260504203719 47 200 1.7 3.5 0.00 0.36 0.36 62 1010.2
20260504202619 48 176 1.7 2.6 0.00 0.36 0.36 61 1010.3
20260504200418 49 172 2.6 3.5 0.00 0.36 0.36 60 1010.1
20260504195318 50 168 3.5 7.0 0.00 0.36 0.36 60 1010.3
20260504194218 50 196 4.3 7.0 0.00 0.36 0.36 59 1010.3
20260504192018 51 201 3.5 5.2 0.00 0.36 0.36 59 1010.0
20260504190918 52 203 5.2 7.0 0.00 0.36 0.36 58 1010.0
20260504185817 52 190 4.3 7.0 0.00 0.36 0.36 58 1010.0
20260504184717 53 199 4.3 6.1 0.00 0.36 0.36 58 1009.8
20260504183618 54 209 5.2 7.0 0.00 0.36 0.36 56 1009.8
20260504182519 54 206 4.3 8.7 0.00 0.36 0.36 54 1009.7
20260504181417 55 218 6.1 8.7 0.00 0.36 0.36 49 1009.7
20260504180317 55 220 7.0 9.6 0.00 0.36 0.36 47 1009.7
20260504175217 56 218 6.1 7.0 0.00 0.36 0.36 46 1009.6